Regional Weather Roundup
Issued by NWS Sterling, VA

Home | Current Version | Previous Version | Graphics & Text | Print | Product List | Glossary On
Versions: 1 2 3 4 5 6 7 8 9 10 11 12 13 14 15 16 17 18 19 20 21 22 23 24 25 26 27
000
ASUS41 KLWX 211611
RWRLWX

REGIONAL WEATHER ROUNDUP
NATIONAL WEATHER SERVICE BALTIMORE MD/WASHINGTON DC
1200 PM EDT THU SEP 21 2017

Note: "FAIR" indicates few or no clouds below 12,000 feet
with no significant weather and/or obstructions to visibility.
 TC=TEMPERATURE CELSIUS

 * =Non NWS site. Station does not report precipitation (e.g. rain,
    snow, etc.), thunder, or fog.

DCZ001-MDZ009-015-VAZ040>042-051-053>054-211700-
WASHINGTON METRO

CITY           SKY/WX    TMP DP  RH WIND       PRES   REMARKS
WASHINGTON NAT MOSUNNY   84  65  52 CALM      30.05F
DULLES         MOSUNNY   81  64  56 CALM      30.07S
ANDREWS AFB    SUNNY     82  63  52 CALM      30.04F
FT BELVOIR     MOSUNNY   81  66  61 VRB3      30.05F
QUANTICO       MOSUNNY   80  69  69 E6        30.06F
COLLEGE PARK*  SUNNY     82  63  53 NW3       30.04F
LEESBURG*      SUNNY     81  66  61 NE3       30.08F
MANASSAS*      SUNNY     82  64  54 NE6       30.07S
GAITHERSBURG*  MOSUNNY   81  65  58 VRB3      30.08S

$$

MDZ006>007-011-014-211700-
BALTIMORE METRO

CITY           SKY/WX    TMP DP  RH WIND       PRES   REMARKS
BWI AIRPORT    PTSUNNY   82  64  54 N8        30.04S
MD SCIENCE CTR   N/A     82  64  54 MISG      30.04F
MARTIN STATE   MOSUNNY   81  70  69 N3        30.06S
ANNAPOLIS      SUNNY     83  68  60 NW5       30.04S
FORT MEADE*    SUNNY     82  64  54 N3        30.07S

$$

MDZ012-015-019>023-211700-
MARYLAND EASTERN SHORE

CITY           SKY/WX    TMP DP  RH WIND       PRES   REMARKS
OCEAN CITY     SUNNY     82  65  56 NE13G21   30.02S
SALISBURY      MOSUNNY   82  66  58 N12       30.02S
CAMBRIDGE*     SUNNY     81  64  57 VRB7      30.03F
EASTON*        MOSUNNY  N/A N/A N/A NE5       30.07F

$$

MDZ017>025-211700-
SOUTHERN MARYLAND

CITY           SKY/WX    TMP DP  RH WIND       PRES   REMARKS
PATUXENT RIVER MOSUNNY   82  67  60 NE7       30.03F
ST INIGOES     SUNNY     83  67  58 VRB3      30.03S
LEONARDTOWN*   SUNNY     79  64  61 N5        30.06S

$$

MDZ003>005-211700-
NORTH CENTRAL MARYLAND

CITY           SKY/WX    TMP DP  RH WIND       PRES   REMARKS
FREDERICK*     MOSUNNY   81  64  57 CALM      30.11S
HAGERSTOWN APT MOSUNNY   78  63  59 CALM      30.10S
WESTMINSTER*   MOSUNNY   79  64  61 CALM      30.08F

$$

MDZ501>502-211700-
WESTERN MARYLAND

CITY           SKY/WX    TMP DP  RH WIND       PRES   REMARKS
OAKLAND*       SUNNY     70  55  60 N7        30.18F
CUMBERLAND*    SUNNY     79  63  57 CALM      30.15S

$$

VAZ025>031-211700-
SHENANDOAH VALLEY

CITY           SKY/WX    TMP DP  RH WIND       PRES   REMARKS
WINCHESTER*    SUNNY     79  63  57 CALM      30.10S
FRONT ROYAL*   SUNNY     79  63  57 CALM      30.09F
LURAY*         SUNNY     81  63  54 CALM      30.10F
NEW MARKET*    SUNNY     84  58  41 NE8       30.09F
STAUNTON*      SUNNY     78  62  58 N5        30.14S
WAYNESBORO*    SUNNY     78  64  62 N6        30.13F

$$

WVZ021-048>050-054>055-211700-
EASTERN WEST VIRGINIA PANHANDLE

CITY           SKY/WX    TMP DP  RH WIND       PRES   REMARKS
MARTINSBURG    SUNNY     80  62  54 CALM      30.08F
PETERSBURG*    SUNNY     83  67  58 CALM      30.12S

$$

VAZ036>039-050-211700-
CENTRAL FOOTHILLS

CITY           SKY/WX    TMP DP  RH WIND       PRES   REMARKS
CHARLOTTESVILL SUNNY     84  62  47 VRB5      30.08F
CULPEPER*      SUNNY     83  66  56 N7        30.08F
ORANGE*        SUNNY     81  64  57 CALM      30.08S
GORDONSVILLE*  SUNNY     81  66  58 NE5       30.08S
WARRENTON*     SUNNY     84  60  43 N6        30.07S

$$

VAZ055>057-211700-
NORTH AND CENTRAL PIEDMONT

CITY           SKY/WX    TMP DP  RH WIND       PRES   REMARKS
FREDERICKSBRG* SUNNY     82  66  57 E5        30.05S
STAFFORD*      SUNNY     82  64  54 N5        30.10S

$$

NCZ024-NYZ072-PAZ021-071-VAZ022-071-211700-
OTHER REGIONAL OBSERVATIONS

CITY           SKY/WX    TMP DP  RH WIND       PRES   REMARKS
NEW YORK CITY  CLOUDY    79  64  60 MISG      30.04F
PHILADELPHIA   MOSUNNY   84  63  49 N8        30.03S
PITTSBURGH     MOSUNNY   80  65  59 S3        30.13S
ROANOKE        MOSUNNY   80  66  62 NE6       30.14F
RICHMOND       MOSUNNY   85  64  49 N9        30.05S
RALEIGH        MOSUNNY   83  67  58 CALM      30.06S

$$

ANZ530>537-211700-
MARINE OBSERVATIONS

STATION/POSITION TIME  TEMP    WIND        PRES
                       AIR SEA DIR/SP/G
                 (UTC) (F)     (DEG/KT/KT) (MB)
THOMAS PT LIGHT  1600   75 76   40/ 10/ 10   N/A
BALT KEY BRIDGE  1542   79     120/  1/  2 1017.3S
COVE POINT       1542   74     340/  8/ 10 1017.9F
LEWISETTA        1542   77 76  360/  4/  5 1016.9F
SOLOMONS ISLAND  1542   79 76   50/  5/  7 1016.7F
PINEY POINT      1542          320/  8/  9   N/A

$$





USA.gov is the U.S. government's official web portal to all federal, state and local government web resources and services.